Lebanon, NH

8:27 AM EST on December 08, 2019 (GMT -0500)
Lebanon Municipal

Weather History for KLEB - November, 2019

Change the Weather History Date:

Friday, November 15, 2019

  Actual Average Record
Temperature  
Mean Temperature 34 °F -  
Max Temperature 44 °F 43 °F 69 °F (1993)
Min Temperature 25 °F 26 °F 10 °F (1942)
Degree Days  
Heating Degree Days 30    
Moisture  
Dew Point 22 °F    
Average Humidity 59    
Maximum Humidity 81    
Minimum Humidity 40    
Precipitation  
Precipitation 0.00 in - - ()
Sea Level Pressure  
Sea Level Pressure 30.12 in    
Wind  
Wind Speed 5 mph ()    
Max Wind Speed 18 mph    
Max Gust Speed 25 mph    
Visibility 9.9 miles    
Events Snow    
Averages and records for this station are not official NWS values.
T = Trace of Precipitation, MM = Missing Value Source: Averaged Metar Reports

Daily Weather History Graph

Daily Weather History Graph

Search for Another Location

Airport or City:

Astronomy

Nov. 15, 2019 Rise Set
Actual Time 6:42 AM EST 4:24 PM EST
Civil Twilight 6:11 AM EST 4:55 PM EST
Nautical Twilight 5:37 AM EST 5:29 PM EST
Astronomical Twilight 5:03 AM EST 6:03 PM EST
Moon 6:53 PM EST (11/15) 9:39 AM EST (11/15)
Length of Visible Light 10h 43m
Length of Day
9h 41m
Waning Gibbous, 90% of the Moon is Illuminated
Nov 15
Waning Gibbous
Nov 19
Last Quarter
Nov 26
New
Dec 4
First Quarter
Dec 12
Full

Hourly Weather History & Observations

Time (EST) Temp. Windchill Dew Point Humidity Pressure Visibility Wind Dir Wind Speed Gust Speed Precip Events Conditions
12:53 AM 28.9 °F - 21.0 °F 72% 30.20 in 10.0 mi Calm Calm - N/A   Overcast
1:53 AM 28.9 °F - 21.0 °F 72% 30.19 in 10.0 mi Calm Calm - N/A   Overcast
2:53 AM 28.0 °F - 21.9 °F 78% 30.17 in 10.0 mi Calm Calm - N/A   Overcast
3:53 AM 28.9 °F - 21.9 °F 75% 30.16 in 10.0 mi Calm Calm - N/A   Overcast
4:53 AM 27.0 °F - 21.9 °F 81% 30.14 in 10.0 mi Calm Calm - N/A   Overcast
5:53 AM 28.9 °F 25.2 °F 21.9 °F 75% 30.13 in 10.0 mi NE 3.5 mph - N/A   Overcast
6:53 AM 25.0 °F - 19.0 °F 78% 30.13 in 10.0 mi Calm Calm - N/A   Clear
7:53 AM 27.0 °F - 19.9 °F 75% 30.13 in 10.0 mi Calm Calm - N/A   Clear
8:53 AM 39.0 °F 36.8 °F 21.9 °F 50% 30.09 in 10.0 mi WNW 3.5 mph - N/A   Clear
9:53 AM 41.0 °F 34.3 °F 21.9 °F 47% 30.08 in 10.0 mi West 11.5 mph - N/A   Clear
11:53 AM 43.0 °F 36.8 °F 23.0 °F 45% 30.04 in 10.0 mi SSW 11.5 mph - N/A   Partly Cloudy
12:53 PM 44.1 °F 37.1 °F 24.1 °F 45% 30.03 in 10.0 mi SW 15.0 mph - N/A   Overcast
1:53 PM 44.1 °F 37.7 °F 25.0 °F 47% 30.03 in 10.0 mi SSW 12.7 mph 21.9 mph N/A   Overcast
2:53 PM 43.0 °F 38.8 °F 25.0 °F 49% 30.04 in 10.0 mi Variable 6.9 mph 20.7 mph N/A   Mostly Cloudy
3:53 PM 42.1 °F 38.4 °F 25.0 °F 51% 30.04 in 10.0 mi SSW 5.8 mph - N/A   Mostly Cloudy
4:53 PM 42.1 °F 36.6 °F 25.0 °F 51% 30.06 in 10.0 mi SW 9.2 mph - N/A   Overcast
5:53 PM 41.0 °F 34.3 °F 24.1 °F 51% 30.09 in 10.0 mi West 11.5 mph 23.0 mph N/A   Overcast
6:53 PM 41.0 °F 35.2 °F 24.1 °F 51% 30.10 in 10.0 mi West 9.2 mph 17.3 mph N/A   Overcast
7:53 PM 39.9 °F 33.4 °F 24.1 °F 53% 30.10 in 10.0 mi WNW 10.4 mph 18.4 mph N/A   Overcast
8:53 PM 39.0 °F 30.6 °F 25.0 °F 57% 30.12 in 10.0 mi North 15.0 mph 25.3 mph N/A   Mostly Cloudy
9:14 PM 35.1 °F 24.5 °F 24.1 °F 64% 30.14 in 8.0 mi North 18.4 mph 24.2 mph 0.00 in Snow Light Snow
9:53 PM 33.1 °F 24.9 °F 21.0 °F 61% 30.19 in 10.0 mi NW 10.4 mph 24.2 mph 0.00 in   Overcast
10:53 PM 32.0 °F 23.6 °F 16.0 °F 52% 30.25 in 10.0 mi NNW 10.4 mph - N/A   Overcast
11:53 PM 30.0 °F 20.0 °F 8.1 °F 40% 30.30 in 10.0 mi NW 12.7 mph 20.7 mph N/A   Clear